CW5316 Weather Reports


Display with metric or nautical units.
time (UTC)temp
F
wind
direction
speed
MPH
gust
MPH
rain 1hr
in
rain 24hr
in
rain mn
in
humidity
%
barometer
mb
20260502224023 73 272 0.0 4.0 0.00 0.00 0.00 56 1014.5
20260502223525 73 210 0.0 4.0 0.00 0.00 0.00 57 1014.5
20260502223039 73 0 0.0 4.0 0.00 0.00 0.00 57 1014.6
20260502222523 72 0 0.0 4.0 0.00 0.00 0.00 59 1014.6
20260502222022 72 96 1.0 8.0 0.00 0.00 0.00 57 1014.7
20260502221542 71 0 0.0 8.0 0.00 0.00 0.00 57 1014.7
20260502221022 71 98 1.0 5.0 0.00 0.00 0.00 58 1014.6
20260502220521 72 304 0.0 2.0 0.00 0.00 0.00 58 1014.7
20260502220039 72 0 0.0 5.0 0.00 0.00 0.00 58 1014.7
20260502215522 70 0 1.0 6.0 0.00 0.00 0.00 59 1014.8
20260502215021 70 88 1.0 6.0 0.00 0.00 0.00 59 1014.9
20260502214545 71 59 1.0 6.0 0.00 0.00 0.00 57 1014.9
20260502214020 70 59 2.0 6.0 0.00 0.00 0.00 59 1014.9
20260502213520 70 0 1.0 7.0 0.00 0.00 0.00 59 1014.9
20260502213043 71 108 0.0 7.0 0.00 0.00 0.00 57 1014.9
20260502212520 70 41 2.0 7.0 0.00 0.00 0.00 59 1015.0
20260502212021 69 104 1.0 6.0 0.00 0.00 0.00 60 1015.0
20260502211539 70 123 1.0 6.0 0.00 0.00 0.00 62 1015.0
20260502211021 69 0 0.0 6.0 0.00 0.00 0.00 59 1015.1
20260502210521 69 0 1.0 6.0 0.00 0.00 0.00 60 1015.1
20260502210043 69 71 0.0 6.0 0.00 0.00 0.00 61 1015.1
20260502205521 69 260 0.0 6.0 0.00 0.00 0.00 60 1015.1
20260502205022 69 112 0.0 6.0 0.00 0.00 0.00 60 1015.1
20260502204542 68 0 0.0 7.0 0.00 0.00 0.00 62 1015.2
20260502204021 68 113 1.0 7.0 0.00 0.00 0.00 61 1015.4
20260502203521 68 132 2.0 7.0 0.00 0.00 0.00 61 1015.4
20260502203038 68 91 2.0 6.0 0.00 0.00 0.00 60 1015.3
20260502202520 69 245 0.0 5.0 0.00 0.00 0.00 62 1015.4
20260502202021 68 293 1.0 6.0 0.00 0.00 0.00 62 1015.4
20260502201533 66 107 2.0 6.0 0.00 0.00 0.00 63 1015.5
20260502201021 67 116 1.0 6.0 0.00 0.00 0.00 62 1015.5
20260502200521 67 0 2.0 6.0 0.00 0.00 0.00 63 1015.5
20260502200041 68 98 0.0 5.0 0.00 0.00 0.00 62 1015.5
20260502195522 67 101 1.0 6.0 0.00 0.00 0.00 64 1015.7
20260502195020 66 107 1.0 6.0 0.00 0.00 0.00 64 1015.7
20260502194539 66 76 1.0 6.0 0.00 0.00 0.00 64 1015.8
20260502194024 66 0 1.0 6.0 0.00 0.00 0.00 66 1015.8
20260502193522 65 80 1.0 4.0 0.00 0.00 0.00 66 1015.9
20260502193041 65 52 1.0 4.0 0.00 0.00 0.00 65 1015.9
20260502192522 66 0 0.0 5.0 0.00 0.00 0.00 65 1015.9
20260502192023 65 219 2.0 5.0 0.00 0.00 0.00 66 1016.0
20260502191535 65 105 0.0 4.0 0.00 0.00 0.00 67 1016.0
20260502191022 64 298 2.0 4.0 0.00 0.00 0.00 66 1016.1
20260502190520 64 257 0.0 6.0 0.00 0.00 0.00 66 1016.1
20260502190046 64 106 0.0 6.0 0.00 0.00 0.00 67 1016.2
20260502185525 63 271 1.0 5.0 0.00 0.00 0.00 69 1016.2
20260502185020 63 69 1.0 6.0 0.00 0.00 0.00 67 1016.2
20260502184553 62 0 1.0 6.0 0.00 0.00 0.00 68 1016.3
20260502184020 63 78 1.0 4.0 0.00 0.00 0.00 67 1016.4
20260502183521 63 284 1.0 6.0 0.00 0.00 0.00 66 1016.4
20260502183041 62 113 1.0 6.0 0.00 0.00 0.00 68 1016.5
20260502182519 63 114 1.0 6.0 0.00 0.00 0.00 67 1016.5
20260502182019 62 355 0.0 6.0 0.00 0.00 0.00 67 1016.5
20260502181539 61 62 2.0 6.0 0.00 0.00 0.00 68 1016.5
20260502181024 61 57 2.0 5.0 0.00 0.00 0.00 70 1016.5
20260502180520 61 0 1.0 4.0 0.00 0.00 0.00 68 1016.6
20260502170520 57 0 2.0 6.0 0.00 0.00 0.00 75 1016.9
20260502164022 57 125 0.0 6.0 0.00 0.00 0.00 74 1016.7
20260502163520 57 0 1.0 6.0 0.00 0.00 0.00 75 1016.7
20260502163045 57 0 0.0 4.0 0.00 0.00 0.00 75 1016.6
20260502162522 56 122 2.0 4.0 0.00 0.00 0.00 75 1016.8
20260502162024 56 126 1.0 3.0 0.00 0.00 0.00 76 1016.8
20260502161539 56 0 0.0 2.0 0.00 0.00 0.00 76 1016.9
20260502161022 56 99 0.0 3.0 0.00 0.00 0.00 75 1016.8
20260502160526 56 0 0.0 3.0 0.00 0.00 0.00 79 1016.8
20260502152021 52 0 0.0 3.0 0.00 0.00 0.00 83 1016.8
20260502151543 52 0 0.0 3.0 0.00 0.00 0.00 83 1016.8
20260502151025 52 99 0.0 3.0 0.00 0.00 0.00 83 1016.7
20260502150520 52 0 0.0 3.0 0.00 0.00 0.00 84 1016.7
20260502130519 50 0 0.0 0.0 0.00 0.00 0.00 87 1016.6
20260502123525 51 0 0.0 0.0 0.00 0.00 0.00 88 1016.8
20260502123055 51 0 0.0 0.0 0.00 0.00 0.00 87 1016.9
20260502122522 51 0 0.0 0.0 0.00 0.00 0.00 88 1016.9
20260502122022 51 0 0.0 0.0 0.00 0.00 0.00 88 1016.8
20260502121535 51 0 0.0 0.0 0.00 0.00 0.00 88 1016.8
20260502121019 51 0 0.0 0.0 0.00 0.00 0.00 88 1016.8
20260502120522 51 0 0.0 0.0 0.00 0.00 0.00 88 1016.8
20260502115520 51 0 0.0 0.0 0.00 0.00 0.00 88 1016.9
20260502115023 51 0 0.0 0.0 0.00 0.00 0.00 88 1017.0
20260502114544 51 0 0.0 0.0 0.00 0.00 0.00 88 1017.0
20260502114026 51 0 0.0 0.0 0.00 0.00 0.00 87 1017.2
20260502113518 51 0 0.0 0.0 0.00 0.00 0.00 87 1017.3
20260502113043 51 0 0.0 4.0 0.00 0.00 0.00 86 1017.5
20260502112522 52 0 0.0 4.0 0.00 0.00 0.00 86 1017.5
20260502112022 52 0 0.0 4.0 0.00 0.00 0.00 86 1017.5
20260502111541 52 0 0.0 4.0 0.00 0.00 0.00 86 1017.4
20260502111019 51 102 1.0 8.0 0.00 0.00 0.00 86 1017.3
20260502110521 51 143 1.0 8.0 0.00 0.00 0.00 87 1017.1
20260502110055 51 135 3.0 7.0 0.00 0.00 0.00 87 1017.1
20260502105523 51 123 2.0 6.0 0.00 0.00 0.00 88 1016.9
20260502105021 51 98 1.0 3.0 0.00 0.00 0.00 89 1016.9
20260502104543 51 0 0.0 1.0 0.00 0.00 0.00 87 1016.7
20260502104020 51 0 0.0 1.0 0.00 0.00 0.00 87 1016.5
20260502103521 51 0 0.0 0.0 0.00 0.00 0.00 87 1016.2
20260502103041 51 0 0.0 0.0 0.00 0.00 0.00 88 1016.2
20260502102523 51 0 0.0 1.0 0.00 0.00 0.00 88 1016.3
20260502102022 51 0 0.0 1.0 0.00 0.00 0.00 88 1016.3
20260502101601 51 0 0.0 0.0 0.00 0.00 0.00 88 1016.3
20260502101019 50 0 0.0 0.0 0.00 0.00 0.00 88 1016.3
20260502100521 50 0 0.0 0.0 0.00 0.00 0.00 88 1016.3
20260502091019 52 0 0.0 0.0 0.00 0.00 0.00 86 1016.6
20260502090527 52 0 0.0 1.0 0.00 0.00 0.00 86 1016.7
20260502071020 54 0 0.0 0.0 0.00 0.00 0.00 82 1016.7
20260502070522 54 0 0.0 0.0 0.00 0.00 0.00 82 1016.8
20260502070048 54 0 0.0 0.0 0.00 0.00 0.00 82 1016.9
20260502065520 55 0 0.0 0.0 0.00 0.00 0.00 81 1016.6
20260502065020 55 0 0.0 0.0 0.00 0.00 0.00 81 1017.0
20260502064537 55 0 0.0 0.0 0.00 0.00 0.00 81 1017.1
20260502064021 55 0 0.0 0.0 0.00 0.00 0.00 81 1017.1
20260502063521 55 0 0.0 0.0 0.00 0.00 0.00 81 1017.0
20260502063037 55 0 0.0 0.0 0.00 0.00 0.00 80 1016.9
20260502062523 56 0 0.0 0.0 0.00 0.00 0.00 79 1016.7
20260502062022 56 0 0.0 0.0 0.00 0.00 0.00 78 1016.7
20260502061540 56 0 0.0 0.0 0.00 0.00 0.00 79 1016.6
20260502061020 55 0 0.0 0.0 0.00 0.00 0.00 79 1016.6
20260502060521 55 0 0.0 0.0 0.00 0.00 0.00 80 1016.6
20260502060041 56 0 0.0 0.0 0.00 0.00 0.00 79 1016.6
20260502055528 56 0 0.0 0.0 0.00 0.00 0.00 79 1016.5
20260502055022 56 0 0.0 0.0 0.00 0.00 0.00 79 1016.5
20260502054537 56 0 0.0 0.0 0.00 0.00 0.00 78 1016.5
20260502054020 56 0 0.0 0.0 0.00 0.00 0.00 78 1016.4
20260502053523 57 0 0.0 0.0 0.00 0.00 0.00 76 1016.3
20260502053037 57 0 0.0 0.0 0.00 0.00 0.00 77 1016.3
20260502052525 57 0 0.0 0.0 0.00 0.00 0.00 76 1016.2
20260502052022 57 0 0.0 1.0 0.00 0.00 0.00 77 1016.2
20260502051542 57 0 0.0 1.0 0.00 0.00 0.00 77 1016.2
20260502051019 57 0 0.0 0.0 0.00 0.00 0.00 77 1016.2
20260502050521 57 0 0.0 0.0 0.00 0.00 0.00 76 1016.1
20260502050040 57 0 0.0 0.0 0.00 0.00 0.00 75 1016.1
20260502045520 57 0 0.0 0.0 0.00 0.00 0.00 75 1016.1
20260502045022 58 0 0.0 0.0 0.00 0.00 0.00 73 1016.1
20260502044534 58 0 0.0 0.0 0.00 0.00 0.00 73 1016.2
20260502044019 58 0 0.0 0.0 0.00 0.00 0.00 72 1016.2
20260502043520 58 0 0.0 0.0 0.00 0.00 0.00 73 1016.1
20260502043035 59 0 0.0 2.0 0.00 0.00 0.00 74 1016.1
20260502042519 58 0 0.0 2.0 0.00 0.00 0.00 73 1015.9
20260502042021 58 0 0.0 0.0 0.00 0.00 0.00 73 1015.8
20260502041543 59 0 0.0 0.0 0.00 0.00 0.00 72 1015.8
20260502041021 60 0 0.0 0.0 0.00 0.00 0.00 70 1015.7
20260502040523 60 0 0.0 0.0 0.00 0.00 0.00 69 1015.7
20260502040044 60 0 0.0 0.0 0.00 0.00 0.00 69 1015.7
20260502035518 61 0 0.0 0.0 0.00 0.00 0.00 67 1015.7
20260502035021 60 0 0.0 0.0 0.00 0.00 0.00 70 1015.6
20260502034537 61 0 0.0 0.0 0.00 0.00 0.00 71 1015.5
20260502034022 61 0 0.0 0.0 0.00 0.00 0.00 69 1015.4
20260502033521 62 0 0.0 1.0 0.00 0.00 0.00 68 1015.3
20260502033050 62 0 0.0 1.0 0.00 0.00 0.00 66 1015.0
20260502032521 62 0 0.0 1.0 0.00 0.00 0.00 66 1015.1
20260502032018 62 0 0.0 1.0 0.00 0.00 0.00 67 1015.2
20260502031538 62 0 0.0 0.0 0.00 0.00 0.00 65 1015.4
20260502031019 63 0 0.0 0.0 0.00 0.00 0.00 65 1015.2
20260502030523 63 0 0.0 0.0 0.00 0.00 0.00 63 1015.1
20260502030053 63 0 0.0 1.0 0.00 0.00 0.00 63 1014.9
20260502025522 64 0 0.0 1.0 0.00 0.00 0.00 63 1014.8
20260502025021 64 0 0.0 1.0 0.00 0.00 0.00 62 1014.8
20260502024543 64 0 0.0 1.0 0.00 0.00 0.00 61 1014.7
20260502024022 64 0 0.0 1.0 0.00 0.00 0.00 62 1014.7
20260502023519 65 0 0.0 2.0 0.00 0.00 0.00 61 1014.7
20260502023059 65 0 0.0 2.0 0.00 0.00 0.00 60 1014.7
20260502022522 66 0 0.0 2.0 0.00 0.00 0.00 59 1014.6
20260502022021 66 96 0.0 2.0 0.00 0.00 0.00 58 1014.6
20260502021541 66 0 0.0 2.0 0.00 0.00 0.00 57 1014.7
20260502021020 66 0 0.0 1.0 0.00 0.00 0.00 59 1014.7
20260502020518 66 0 0.0 2.0 0.00 0.00 0.00 60 1014.7
20260502020045 67 0 0.0 2.0 0.00 0.00 0.00 57 1014.6
20260502015521 67 0 0.0 1.0 0.00 0.00 0.00 56 1014.6
20260502015023 67 0 0.0 1.0 0.00 0.00 0.00 55 1014.6
20260502014541 68 0 0.0 2.0 0.00 0.00 0.00 56 1014.6
20260502014018 68 0 0.0 2.0 0.00 0.00 0.00 57 1014.6
20260502013521 68 201 0.0 1.0 0.00 0.00 0.00 57 1014.6
20260502013040 68 0 0.0 1.0 0.00 0.00 0.00 58 1014.6
20260502012527 68 0 0.0 0.0 0.00 0.00 0.00 55 1014.6
20260502012025 69 0 0.0 2.0 0.00 0.00 0.00 56 1014.5
20260502011540 69 0 0.0 2.0 0.00 0.00 0.00 56 1014.5
20260502011021 69 0 0.0 3.0 0.00 0.00 0.00 55 1014.5
20260502010526 70 244 0.0 3.0 0.00 0.00 0.00 55 1014.5
20260502010034 70 0 0.0 2.0 0.00 0.00 0.00 54 1014.5
20260502005520 70 283 0.0 3.0 0.00 0.00 0.00 52 1014.4
20260502005019 70 0 0.0 3.0 0.00 0.00 0.00 54 1014.5
20260502004545 70 0 0.0 3.0 0.00 0.00 0.00 53 1014.4
20260502004024 70 0 0.0 3.0 0.00 0.00 0.00 52 1014.3
20260502003521 70 0 0.0 3.0 0.00 0.00 0.00 52 1014.2
20260502003041 71 114 0.0 3.0 0.00 0.00 0.00 50 1014.3
20260502002521 71 0 0.0 2.0 0.00 0.00 0.00 50 1014.3
20260502002019 72 0 0.0 3.0 0.00 0.00 0.00 50 1014.3
20260502001538 72 0 0.0 3.0 0.00 0.00 0.00 50 1014.3
20260502001022 72 282 1.0 3.0 0.00 0.00 0.00 51 1014.2
20260502000521 71 107 0.0 2.0 0.00 0.00 0.00 49 1014.3
20260502000035 72 0 0.0 5.0 0.00 0.00 0.00 51 1014.3
20260501235520 72 0 0.0 5.0 0.00 0.00 0.00 49 1014.3
20260501235019 72 121 0.0 3.0 0.00 0.00 0.00 49 1014.2
20260501234541 72 0 0.0 6.0 0.00 0.00 0.00 48 1014.2
20260501234020 72 221 0.0 7.0 0.00 0.00 0.00 48 1014.3
20260501233519 72 85 1.0 7.0 0.00 0.00 0.00 49 1014.3
20260501233039 73 301 0.0 7.0 0.00 0.00 0.00 49 1014.4
20260501232525 73 129 1.0 7.0 0.00 0.00 0.00 47 1014.4
20260501232021 73 284 2.0 7.0 0.00 0.00 0.00 47 1014.5
20260501231535 74 313 0.0 7.0 0.00 0.00 0.00 47 1014.4
20260501231021 73 0 2.0 7.0 0.00 0.00 0.00 47 1014.5
20260501230522 75 93 0.0 3.0 0.00 0.00 0.00 44 1014.4
20260501230037 75 219 0.0 3.0 0.00 0.00 0.00 45 1014.5
20260501225525 75 253 1.0 3.0 0.00 0.00 0.00 44 1014.6
20260501225023 75 0 0.0 3.0 0.00 0.00 0.00 43 1014.7
20260501224549 75 246 0.0 4.0 0.00 0.00 0.00 45 1014.8